GFSWCAN_prec_radar_216.txt.gz
Reflectivity
-17 18 25 17 17 17 14 13 12 13 -20 14 19 20 21 3 19 17 -0 -7 25 36 28 24 9 11 6 8 20 28 26 29 33 36 38 29 16 17 25 9 -20 -3 11 19 14 20 22 -17 -20 -20 -20 -20 -20 -20
-1 13 16 24 22 15 12 -17 -19 11 14 4 -20 23 -12 -7 -4 -16 9 14 16 36 33 22 24 12 22 -1 27 31 28 17 16 31 31 36 23 25 26 13 7 13 -1 7 19 16 -1 -19 -20 -20 -20 -20 -20 -20
-20 -20 -20 -20 5 -7 21 16 17 15 15 12 -4 15 18 -1 22 19 -20 4 18 28 34 24 28 13 2 5 17 24 15 7 24 28 26 23 24 31 21 21 15 -9 -18 20 13 1 -9 12 -16 -19 -20 -20 -20 -20
5 -20 -20 -20 -9 21 15 17 16 18 18 17 -11 12 18 22 21 21 -7 -20 23 22 24 29 20 10 4 -18 -12 21 30 26 27 32 30 30 28 29 30 14 8 -6 -2 10 21 19 2 -3 -20 -11 -18 -20 -20 -20
4 0 -7 -1 2 11 18 26 18 19 20 -13 19 23 19 22 20 18 17 -20 16 10 28 11 -15 -3 9 3 8 24 34 34 37 34 21 13 19 20 13 10 25 -12 -7 0 3 -16 -18 8 14 5 -16 -20 -20 -20
-6 21 21 15 -14 3 16 23 12 -10 19 13 18 13 28 23 19 30 25 22 -11 13 5 28 10 -20 -20 1 1 10 14 29 29 33 23 28 8 8 12 3 -19 -20 3 14 -5 -16 -20 10 1 -13 -6 3 -1 -20
-18 -13 12 26 27 17 -20 18 18 17 15 -20 6 18 28 19 32 32 -19 -17 -8 16 21 28 14 -20 -20 2 5 -6 8 16 16 8 7 20 25 18 20 12 -20 -20 -20 2 -8 -14 -4 -19 -11 -11 10 20 19 13
-20 -19 -6 21 28 26 2 -20 -20 -20 -20 -20 14 28 22 27 13 -4 -8 40 23 13 27 20 12 -7 -7 15 14 19 11 25 32 29 28 19 21 16 15 -3 -12 2 -15 -18 7 15 17 24 12 -0 -1 8 8 -18
-20 -13 19 -3 16 16 13 -20 -20 -20 17 32 27 26 -10 2 13 16 39 29 19 27 23 13 -14 -15 -6 9 10 11 3 -16 25 -6 -3 -7 -2 3 -12 -17 -2 0 -11 -20 -20 4 10 -8 -11 -14 -17 1 2 -15
-20 15 -2 4 8 10 -17 -20 -20 19 18 21 -3 -19 -5 26 41 41 14 29 36 31 34 24 14 6 -20 -20 -15 -20 -20 -17 -4 -20 -14 8 -20 -20 -20 -20 -19 -3 -20 -19 6 11 -5 -20 -20 -20 -20 -20 -20 -20
-20 16 1 20 15 9 8 -0 -4 22 16 -14 8 5 21 26 32 -11 1 18 -8 -7 -1 -7 -18 -20 -20 -20 -20 -20 -20 -20 -16 -20 -20 -17 -20 -20 -20 -20 -20 -8 14 12 4 -5 -20 -20 -20 -20 -20 -20 -20 -20
-19 20 21 19 32 20 11 20 18 -11 -4 -13 -12 19 32 11 -19 -20 -20 -11 -20 -20 -11 -20 -20 -20 -13 -20 -20 -20 -20 -12 -12 -20 10 7 -20 -20 -20 -20 -10 1 -3 -10 -20 -20 -20 -20 -20 -20 -20 -20 -20 -20
-20 1 29 28 29 32 28 17 -17 -10 -20 -20 -20 9 -16 -20 16 8 -20 -20 -20 -20 -15 -8 -20 -20 -8 -20 -15 -2 -20 -14 -20 -5 -20 -20 -20 -20 -20 -17 3 -4 -20 -20 -20 -20 -20 -20 -20 -20 -20 -20 -20 -20
-20 -14 2 21 31 24 29 23 6 -16 -15 -20 -20 -20 -19 -0 -20 -20 -20 -20 -20 -20 -20 -10 -5 -11 -8 -12 -4 -20 -20 -19 -2 -17 -20 -20 -20 -20 -20 -20 -20 -20 -20 -20 -20 -20 -20 -20 -20 -20 -20 -20 -20 -20
-20 -20 -12 5 1 -3 12 19 18 23 19 -13 -19 -4 -20 -20 -20 -20 -20 -20 -15 -20 -16 -4 4 10 4 10 9 -0 9 -15 -20 -20 -20 -18 -20 -20 -20 -20 -20 -20 -20 -20 -20 -20 -20 -20 -20 -20 -20 -20 -20 -20
-20 -20 -20 -20 -20 -20 -20 -20 -20 -20 -19 -17 -17 -9 -20 -20 -20 -20 -20 -14 -18 -18 -18 -12 -2 -6 -20 -17 -18 -20 -11 -20 -20 -20 -20 -20 -20 -20 -20 -20 -20 -20 -20 -20 -20 -20 -20 -20 -20 -20 -20 -20 -20 -20
-20 -20 -20 -20 -20 -20 -20 -20 -20 -20 -20 -20 -20 -20 -20 -20 -18 -19 -1 -2 1 -20 -6 -17 -19 -20 -20 -20 -20 -20 -20 -14 -20 -20 -20 -20 -20 -20 -20 -20 -20 -20 -20 -20 -20 -20 -20 -20 -20 -20 -20 -20 -20 -20
-20 -20 -20 -20 -20 -20 -20 -20 -20 -20 -20 -20 -20 -20 -20 -20 -20 -17 -7 21 19 11 -1 1 -20 -20 -20 -20 -20 -20 -20 -20 -20 -20 -20 -20 -20 -20 -20 -20 -20 -20 -20 -20 -20 -20 -20 -20 -20 -20 -20 -20 -20 -20
-20 -20 -20 -20 -20 -20 -20 -20 -20 -20 -20 -20 -20 -20 -20 -20 -20 -20 -4 -9 -20 -20 -20 -20 -20 -20 -20 -20 -20 -20 -20 -20 -20 -20 -20 -20 -20 -20 -20 -20 -20 -20 -20 -20 -20 -20 -20 -20 -20 -20 -20 -20 -20 -20
-20 -20 -20 -20 -20 -20 -20 -20 -20 -20 -20 -20 -20 -20 -20 -20 -20 -20 -20 -20 -20 -20 -20 -20 -20 -20 -20 -20 -20 -20 -20 -20 -20 -20 -20 -20 -20 -20 -20 -20 -20 -20 -20 -20 -20 -20 -20 -20 -20 -20 -20 -20 -20 -20
-20 -20 -20 -20 -20 -20 -20 -20 -20 -20 -20 -20 -20 -20 -20 -20 -20 -20 -20 -20 -20 -20 -20 -20 -20 -20 -20 -20 -20 -20 -20 -20 -20 -20 -20 -20 -20 -20 -20 -20 -20 -20 -20 -20 -20 -20 -20 -20 -20 -20 -20 -20 -20 -20
-20 -20 -20 -20 -20 -20 -20 -20 -20 -20 -20 -20 -20 -20 -20 -20 -20 -20 -20 -20 -20 -20 -20 -20 -20 -20 -20 -20 -20 -20 -20 -20 -20 -20 -20 -20 -20 -20 -20 -20 -20 -20 -20 -20 -20 -20 -20 -20 -20 -20 -20 -20 -20 -20
-20 -20 -20 -20 -20 -20 -20 -20 -20 -20 -20 -20 -20 -20 -20 -20 -20 -20 -20 -20 -20 -20 -20 -20 -20 -20 -20 -20 -20 -20 -20 -20 -20 -20 -20 -20 -20 -20 -20 -20 -20 -20 -20 -20 -20 -20 -20 -20 -20 -20 -20 -20 -20 -20
-20 -20 -20 -20 -20 -20 -20 -20 -20 -20 -20 -20 -20 -20 -20 -20 -20 -20 -20 -20 -20 -20 -20 -20 -20 -20 -20 -20 -20 -20 -20 -20 -20 -20 -20 -20 -20 -20 -20 -20 -20 -20 -20 -20 -20 -20 -20 -20 -20 -20 -20 -20 -20 -20
-20 -20 -20 -20 -20 -20 -20 -20 -20 -20 -20 -20 -20 -20 -20 -20 -20 -20 -20 -20 -20 -20 -20 -20 -20 -20 -20 -20 -20 -20 -20 -20 -20 -20 -20 -20 -20 -20 -20 -20 -20 -20 -20 -20 -20 -20 -20 -20 -20 -20 -20 -20 -20 -20
-20 -20 -20 -20 -20 -20 -20 -20 -20 -20 -20 -20 -20 -20 -20 -20 -20 -20 -20 -20 -20 -20 -20 -20 -20 -20 -20 -20 -20 -20 -20 -20 -20 -20 -20 -20 -20 -20 -20 -20 -20 -20 -20 -20 -20 -20 -20 -20 -20 -20 -20 -20 -20 -20
-20 -20 -20 -20 -20 -20 -20 -20 -20 -20 -20 -20 -20 -20 -20 -20 -20 -20 -20 -20 -20 -20 -20 -20 -20 -20 -20 -20 -20 -20 -20 -20 -20 -20 -20 -20 -20 -20 -20 -20 -20 -20 -20 -20 -20 -20 -20 -20 -20 -20 -20 -20 -20 -20
-20 -20 -20 -20 -20 -20 -20 -20 -20 -20 -20 -20 -20 -20 -20 -20 -20 -20 -20 -20 -20 -20 -20 -20 -20 -20 -20 -20 -20 -20 -20 -20 -20 -20 -20 -20 -20 -20 -20 -20 -20 -20 -20 -20 -20 -20 -20 -20 -20 -20 -20 -20 -20 -20
-20 -20 -20 -20 -20 -20 -20 -20 -20 -20 -20 -20 -20 -20 -20 -20 -7 -20 -20 -20 -20 -20 -20 -20 -20 -20 -20 -20 -20 -20 -20 -20 -20 -20 -20 -20 -20 -20 -20 -20 -20 -20 -20 -20 -20 -20 -20 -20 -20 -20 -20 -20 -20 -20
-20 -20 -20 -20 -20 -20 -20 -20 -20 -20 -20 -20 -20 -20 -20 -20 -20 -20 -20 -20 -20 -20 -20 -20 -20 -20 -20 -20 -20 -20 -20 -20 -20 -20 -20 -20 -20 -20 -20 -20 -20 -20 -20 -20 -20 -20 -20 -20 -20 -20 -20 -20 -20 -20
-20 -20 -20 -20 -20 -20 -20 -20 -20 -20 -20 -20 -20 -20 -20 -20 -20 -20 -20 -20 -20 -20 -20 -20 -20 -20 -20 -20 -20 -20 -20 -20 -20 -20 -20 -20 -20 -20 -20 -20 -20 -20 -20 -20 -20 -20 -20 -20 -20 -20 -20 -20 -20 -20
-20 -20 -20 -20 -20 -20 -20 -20 -20 -20 -20 -20 -20 -20 -20 -20 -20 -20 -20 -20 -20 -20 -20 -20 -20 -20 -20 -20 -20 -20 -20 -20 -20 -20 -20 -20 -20 -20 -20 -20 -20 -20 -20 -20 -20 -20 -20 -20 -20 -20 -20 -20 -20 -20
-16 -18 -16 -20 -20 -20 -20 -20 -20 -20 -20 -20 -20 -20 -20 -20 -20 -20 -20 -20 -20 -20 -20 -20 -20 -20 -20 -20 -20 -20 -20 -20 -20 -20 -20 -20 -20 -20 -20 -20 -20 -20 -20 -20 -20 -20 -20 -20 -20 -20 -20 -20 -20 -20

GFSWCAN_prec_radar_219.txt.gz
Reflectivity
-9 -20 -20 -13 -13 -20 17 15 15 16 4 -18 13 14 -3 17 19 14 27 25 33 34 31 28 28 30 20 23 30 27 16 24 31 32 37 32 26 26 22 9 -18 -16 3 7 13 22 25 -6 -20 -20 -15 -15 -20 -20
1 -20 -20 -20 -13 -2 10 27 28 22 -16 13 11 -20 -20 18 16 19 17 18 15 37 33 27 27 28 26 28 27 31 27 27 25 18 32 28 26 30 26 17 6 4 18 11 11 14 4 -17 -20 -20 -20 -20 -20 -20
-8 -3 2 5 -14 3 15 19 21 21 25 17 10 -20 -20 19 18 18 13 21 33 26 24 19 22 5 28 27 24 38 32 28 27 14 26 24 26 33 25 26 6 3 -10 20 20 25 -8 1 5 -3 -16 -18 -20 -20
-18 2 -9 -20 -20 -20 3 17 20 14 17 21 21 1 -20 18 20 21 13 5 4 18 14 13 7 -16 -20 -7 21 26 32 35 34 30 31 28 26 33 30 25 16 5 -11 3 17 -10 -17 3 -4 7 4 -18 -11 -11
-20 -17 -13 -20 -20 -20 -20 9 27 27 12 -11 17 21 -20 11 20 22 5 -11 -20 -20 -3 5 5 10 -10 -20 10 27 28 28 39 27 25 25 37 35 35 26 15 -12 -10 -2 -4 -0 25 2 -19 -5 -7 -18 -10 -4
-20 -20 -19 10 -20 -20 -20 5 20 14 18 11 16 17 -20 17 23 29 35 18 9 -12 12 8 -3 1 7 -7 -20 -3 25 30 33 32 29 31 25 20 23 18 4 -20 -12 -8 10 -4 -2 -4 -20 -20 -19 -8 -0 1
-20 -19 -10 -1 2 -19 -20 14 15 15 27 20 19 -19 -19 21 12 38 29 7 -5 13 34 5 -14 2 2 -14 13 7 30 34 27 23 22 25 6 9 19 21 -6 -20 -20 -8 13 12 15 6 -2 7 12 13 11 1
-3 4 15 19 18 17 -1 -4 8 29 -1 -13 -9 16 20 19 19 38 -13 -7 8 1 8 19 5 -18 1 15 14 1 8 20 25 28 29 19 19 25 22 -2 -20 -20 -20 -17 -20 -19 9 16 15 14 18 20 14 3
19 -14 7 18 24 25 22 14 15 -15 12 15 20 23 9 39 39 25 17 14 30 12 12 16 -17 -20 17 21 16 15 9 4 26 7 -13 -11 7 17 -5 -20 -20 -20 -20 -20 -19 4 13 18 17 21 24 15 -13 -18
12 -20 -4 -11 16 18 8 20 -2 14 -18 20 3 22 29 36 14 -14 7 17 16 28 31 -2 -20 -20 -18 -19 -17 -20 -20 -7 -20 -20 -9 -14 -20 -20 -20 -6 8 -2 -19 -20 9 21 22 13 18 24 12 13 11 -3
14 8 -20 1 11 10 8 22 19 13 12 17 28 14 22 4 -17 -10 12 23 27 25 30 23 3 -9 -20 -19 -19 -1 -7 -20 -20 -20 -20 -20 -20 -20 -20 -20 -20 -20 -20 -12 12 15 -3 -1 -2 -20 -19 -9 -17 -20
17 12 8 7 8 -1 16 -12 -4 4 22 -9 1 15 2 -18 20 24 24 16 3 11 9 -10 10 10 -4 -11 -20 -20 -20 -20 -19 -20 -20 -20 -20 -20 -20 -20 -20 -20 -20 -20 -5 12 -1 -19 -20 -20 -20 -20 -20 -20
21 15 14 6 -11 -17 7 12 1 -20 -20 -20 -20 -20 -20 -19 9 -15 -17 -19 -20 -19 -20 -11 -20 -20 -19 -20 -20 -20 -20 -20 -20 -17 -20 -20 -20 -20 -20 -20 -20 -20 8 12 7 3 -15 -20 -20 -20 -20 -20 -20 -20
31 26 16 -8 -17 -13 -20 -20 -20 -20 -20 -20 -20 -20 -20 -20 -20 -20 -20 -20 -20 -20 -5 -20 -20 -20 -20 -12 2 -2 -20 -20 -14 -20 -20 -19 -20 -20 -20 -20 -18 -1 -20 -20 -20 -20 -20 -20 -20 -20 -20 -20 -20 -20
-19 11 25 29 18 3 -20 -20 -20 -20 -20 -20 -20 -20 -20 -20 -20 -20 -20 -20 -20 -20 -20 -19 -20 -20 -20 -1 -11 -20 -8 -20 -20 -20 -20 -20 -20 -20 -20 -20 -20 -20 -20 -20 -20 -20 -20 -20 -20 -20 -20 -20 -20 -20
-20 -20 -20 -12 -0 -7 -8 16 14 2 -17 -20 -20 -20 -20 -20 -20 -20 -20 -9 -20 -20 -20 -20 -15 -20 -20 -20 -2 -20 -20 -20 -20 -20 -20 -20 -20 -20 -20 -20 -20 -20 -20 -20 -20 -20 -20 -20 -20 -20 -20 -20 -20 -20
-20 -20 -20 -20 -20 -20 -20 -20 -20 -20 -20 -20 -20 -20 -20 -20 -20 -20 -19 -20 -20 -20 -20 -7 -20 -20 -20 -20 -20 -20 -20 -20 -20 -20 -20 -20 -20 -20 -20 -20 -20 -20 -20 -20 -20 -20 -20 -20 -20 -20 -20 -20 -20 -20
-20 -20 -20 -20 -20 -20 -20 -20 -20 -20 -20 -20 -20 -20 -20 -20 -20 -20 -20 -20 18 12 3 -20 -20 -20 -20 -20 -20 -20 -20 -20 -20 -20 -20 -20 -20 -20 -20 -20 -20 -20 -20 -20 -20 -20 -20 -20 -20 -20 -20 -20 -20 -20
-20 -20 -20 -20 -20 -20 -20 -20 -20 -20 -20 -20 -20 -20 -20 -20 -20 -20 -1 -2 -4 -3 -20 -12 -20 -20 -20 -20 -20 -20 -20 -20 -20 -20 -20 -20 -20 -20 -20 -20 -20 -20 -20 -20 -20 -20 -20 -20 -20 -20 -20 -20 -20 -20
-20 -20 -20 -20 -20 -20 -20 -20 -20 -20 -20 -20 -20 -20 -20 -20 -20 -20 -15 -12 -20 -20 -20 -20 -20 -20 -20 -20 -20 -20 -20 -20 -20 -20 -20 -20 -20 -20 -20 -20 -20 -20 -20 -20 -20 -20 -20 -20 -20 -20 -20 -20 -20 -20
-20 -20 -20 -20 -20 -20 -20 -20 -20 -20 -20 -20 -20 -20 -20 -20 -20 -20 -20 -20 -20 -20 -20 -20 -20 -20 -20 -20 -20 -20 -20 -20 -20 -20 -20 -20 -20 -20 -20 -20 -20 -20 -20 -20 -20 -20 -20 -20 -20 -20 -20 -20 -20 -20
-20 -20 -20 -20 -20 -20 -20 -20 -20 -20 -20 -20 -20 -20 -20 -20 -20 -20 -20 -20 -20 -20 -20 -20 -20 -20 -20 -20 -20 -20 -20 -20 -20 -20 -20 -20 -20 -20 -20 -20 -20 -20 -20 -20 -20 -20 -20 -20 -20 -20 -20 -20 -20 -20
-20 -20 -20 -20 -20 -20 -20 -20 -20 -20 -20 -20 -20 -20 -20 -20 -20 -20 -20 -20 -20 -20 -20 -20 -20 -20 -20 -20 -20 -20 -20 -20 -20 -20 -20 -20 -20 -20 -20 -20 -20 -20 -20 -20 -20 -20 -20 -20 -20 -20 -20 -20 -20 -20
-20 -20 -20 -20 -20 -20 -20 -20 -20 -20 -20 -20 -20 -20 -20 -20 -20 -20 -20 -20 -20 -20 -20 -20 -20 -20 -20 -20 -20 -20 -20 -20 -20 -20 -20 -20 -20 -20 -20 -20 -20 -20 -20 -20 -20 -20 -20 -20 -20 -20 -20 -20 -20 -20
-20 -20 -20 -20 -20 -20 -20 -20 -20 -20 -20 -20 -20 -20 -20 -20 -20 -20 -20 -20 -20 -20 -20 -20 -20 -20 -20 -20 -20 -20 -20 -20 -20 -20 -20 -20 -20 -20 -20 -20 -20 -20 -20 -20 -20 -20 -20 -20 -20 -20 -20 -20 -20 -20
-20 -20 -20 -20 -20 -20 -20 -20 -20 -20 -20 -20 -20 -20 -20 -20 -20 -20 -20 -20 -20 -20 -18 -20 -20 -20 -20 -20 -20 -20 -20 -20 -20 -20 -20 -20 -20 -20 -20 -20 -20 -20 -20 -20 -20 -20 -20 -20 -20 -20 -20 -20 -20 -20
-20 -20 -20 -20 -20 -20 -20 -20 -20 -20 -20 -20 -20 -20 -20 -20 -20 -20 -20 -20 -20 -20 -20 -20 -20 -20 -20 -20 -20 -20 -20 -20 -20 -20 -20 -20 -20 -20 -20 -20 -20 -20 -20 -20 -20 -20 -20 -20 -20 -20 -20 -20 -20 -20
-20 -20 -20 -20 -20 -20 -20 -20 -20 -20 -20 -20 -20 -20 -20 -20 -20 -20 -20 -20 -20 -20 -20 -20 -20 -20 -20 -20 -20 -20 -20 -20 -20 -20 -20 -20 -20 -20 -20 -20 -20 -20 -20 -20 -20 -20 -20 -20 -20 -20 -20 -20 -20 -20
-20 -20 -20 -20 -20 -20 -20 -20 -20 -20 -20 -20 -20 -20 -20 -20 -20 -20 -20 -20 -20 -20 -20 -20 -20 -20 -20 -20 -20 -20 -20 -20 -20 -20 -20 -20 -20 -20 -20 -20 -20 -20 -20 -20 -20 -20 -20 -20 -20 -20 -20 -20 -20 -20
-20 -20 -20 -20 -20 -20 -20 -20 -20 -20 -20 -20 -20 -20 -20 -20 -20 -20 -20 -20 -20 -20 -20 -20 -20 -20 -20 -20 -20 -20 -20 -20 -20 -20 -20 -20 -20 -20 -20 -20 -20 -20 -20 -20 -20 -20 -20 -20 -20 -20 -20 -20 -20 -20
-20 -20 -20 -20 -20 -20 -20 -20 -20 -20 -20 -20 -20 -20 -20 -20 -20 -20 -20 -20 -20 -20 -20 -20 -20 -20 -20 -20 -20 -20 -20 -20 -20 -20 -20 -20 -20 -20 -20 -20 -20 -20 -20 -20 -20 -20 -20 -20 -20 -20 -20 -20 -20 -20
-20 -20 -20 -20 -20 -20 -20 -20 -20 -20 -20 -20 -20 -20 -20 -20 -20 -20 -20 -20 -20 -20 -20 -20 -20 -20 -20 -20 -20 -20 -20 -20 -20 -20 -20 -20 -20 -20 -20 -20 -20 -20 -20 -20 -20 -20 -20 -20 -20 -20 -20 -20 -20 -20
-19 -20 -20 -20 -20 -20 -20 -20 -20 -20 -20 -20 -20 -20 -20 -20 -20 -20 -20 -20 -20 -20 -20 -20 -20 -20 -20 -20 -20 -20 -20 -20 -20 -20 -20 -20 -20 -20 -20 -20 -20 -20 -20 -20 -20 -20 -20 -20 -20 -20 -20 -20 -20 -20

GFSWCAN_prec_radar_222.txt.gz
Reflectivity
-20 -19 -20 -20 -20 -20 5 8 -15 -14 2 9 0 5 4 -4 19 10 18 23 31 33 28 28 27 28 22 22 31 31 25 30 30 30 29 33 28 28 19 -10 -20 -14 4 15 16 22 28 4 -20 -15 3 14 1 -4
3 -5 -20 -17 -10 -20 -20 -20 -19 -20 -4 7 16 9 7 9 -20 20 9 10 19 33 29 20 23 31 29 27 31 31 31 30 18 20 35 24 13 24 20 7 -8 -13 -20 -17 -17 -9 -19 -20 -12 9 -4 1 -2 -19
-5 -19 6 -16 -19 1 -15 -4 -18 6 13 14 18 17 13 18 17 25 14 15 26 31 25 22 7 -9 25 31 32 32 31 31 31 23 29 29 33 29 16 24 13 9 -9 -11 -15 -20 -20 -20 -20 -19 14 9 -20 -20
-20 -4 -10 -14 -9 -20 -20 -9 -5 -17 6 17 19 19 16 15 -3 26 25 20 9 24 19 8 -18 -12 -8 9 27 33 32 33 33 33 32 30 27 24 28 23 25 11 -13 -17 -20 -20 -20 -20 -20 5 18 10 5 -17
-20 -20 -0 -4 -5 -3 -20 -20 3 9 7 11 20 26 23 20 10 26 27 13 0 -6 8 12 3 -17 -18 -12 21 27 33 30 33 26 24 24 34 34 36 34 28 0 -16 -17 -18 -20 -6 -19 -18 -12 -11 -14 -16 -15
-20 -20 -20 -16 -11 8 -20 -20 -20 13 6 17 25 33 34 27 23 30 40 30 2 -3 34 10 -14 -20 -17 -10 4 17 30 34 33 31 30 29 28 20 17 19 9 -20 -13 1 10 7 13 -20 -20 -19 -18 -2 -17 -11
5 12 14 4 10 4 -19 -20 -20 14 -17 16 22 27 30 21 22 37 30 12 24 4 -0 -14 -20 -20 -5 -6 10 28 32 28 22 29 23 28 19 18 23 17 -10 -18 -20 4 14 9 9 -10 -17 -20 -20 1 2 6
-2 7 1 10 19 28 9 -16 -11 -2 14 25 21 32 27 28 33 32 4 -19 6 12 27 7 -20 -20 -20 -2 5 16 30 34 29 29 30 18 21 31 21 6 -7 -19 -6 -4 12 9 -3 -18 -20 -20 -20 -20 -7 9
3 2 -13 5 16 26 13 10 8 9 25 23 32 32 31 33 33 33 24 30 14 18 4 -17 -20 -20 -15 5 22 13 31 9 29 20 19 25 17 14 -1 -18 -20 -20 -20 -20 -17 -17 -17 -19 -20 -20 -14 23 33 30
-2 16 4 -15 13 6 12 7 33 23 32 34 34 32 22 29 21 -1 39 37 23 15 -20 -20 -20 -20 -20 -8 11 4 14 18 8 -20 11 6 7 -2 -20 -20 -20 -20 -20 -20 -20 -20 -20 -20 -20 12 31 34 25 12
7 18 12 6 3 18 16 14 26 19 10 15 11 6 25 32 26 24 20 15 -7 -13 -20 -20 -20 -20 8 -5 -14 -17 8 -1 -6 -20 -20 -20 -20 -20 -20 -20 -20 -20 -20 -20 -20 -20 -20 10 29 23 16 8 4 4
14 0 16 13 -2 -20 -20 -20 -20 -20 -20 -20 -15 21 11 -2 21 20 -0 -20 -20 -20 -20 -17 -20 -20 -1 15 11 16 11 -13 -20 -20 -20 -20 -20 -20 -20 -20 -20 -20 -20 -20 -20 -15 12 22 9 7 2 -6 -3 -4
17 1 -15 -4 -2 -4 -20 -20 -20 -20 -20 -20 -20 14 19 13 -17 -20 -20 -20 -20 -20 5 8 17 22 23 24 12 -9 -18 -20 -20 -20 -20 -20 -20 -20 -20 -20 -20 -20 -20 -20 -18 -15 -19 -17 -12 -5 -16 -20 -20 -20
10 18 27 29 25 9 -16 -19 -20 -14 -20 -20 -11 -20 -20 -20 -20 -20 -20 -20 -7 1 1 -7 -15 -20 -20 -20 -20 -20 -20 -20 -20 -20 -20 -20 -20 -20 -20 -20 -20 -20 8 17 18 13 4 -18 -17 -15 -20 -20 -20 -20
-3 11 -18 -20 -11 1 -20 -11 -20 -20 -20 -20 -20 -20 -20 -20 -20 -20 -20 -20 -20 -20 -20 -20 -20 -20 -20 -20 -20 -20 -20 -20 -20 -20 -20 -20 -20 -20 -20 -20 -18 9 -8 -14 -15 -18 -10 -14 -20 -20 -20 -20 -20 -20
-20 -18 -18 -20 -20 -20 -20 -20 -20 -20 -20 -20 -20 -20 -20 -20 -20 -12 -20 -20 -20 -20 -20 -20 -20 -20 -20 -17 -20 -20 -13 -20 -20 -20 -20 -20 -20 -20 -20 -20 -19 -15 -20 -9 -20 -20 -20 -20 -20 -20 -20 -20 -20 -20
-20 -20 -20 -20 -20 -20 -20 -20 -20 -20 -20 -20 -20 -20 -20 -20 -20 -20 -20 -20 -20 -20 -20 -20 -20 -20 -20 -20 -20 -20 -20 -20 -20 -20 -20 -20 -20 -20 -20 -20 -20 -20 -20 -20 -20 -20 -20 -20 -20 -20 -20 -20 -20 -20
-20 -20 -20 -20 -20 -20 -20 -20 -20 -20 -20 -20 -20 -20 -20 -20 -20 -20 -18 -20 -7 6 -20 -20 -20 -20 -20 -20 -20 -20 -20 -20 -6 -20 -20 -20 -20 -20 -20 -20 -20 -20 -20 -20 -20 -20 -20 -20 -20 -20 -20 -20 -20 -20
-20 -20 -20 -20 -20 -20 -20 -20 -20 -20 -20 -20 -20 -20 -20 -20 -20 -17 -20 -13 16 -20 -7 -20 -20 -20 -20 -20 -20 -20 -20 -20 -20 -20 -20 -20 -20 -20 -20 -20 -20 -20 -20 -20 -20 -20 -20 -20 -20 -20 -20 -20 -20 -20
-20 -20 -20 -20 -20 -20 -20 -20 -20 -20 -16 -20 -20 -20 -20 -20 -20 -12 -20 -18 2 -5 -19 -20 -20 -20 -20 -20 -20 -20 -20 -20 -20 -20 -20 -20 -20 -20 -20 -20 -20 -20 -20 -20 -20 -20 -20 -20 -20 -20 -20 -20 -20 -20
-20 -20 -20 -20 -20 -20 -20 -20 -20 -20 -20 -20 -20 -9 -20 -20 -20 -20 -12 -20 -20 -20 -20 -20 -20 -20 -20 -20 -20 -20 -20 -20 -20 -20 -20 -20 -20 -20 -20 -20 -20 -20 -20 -20 -20 -20 -20 -20 -20 -20 -20 -20 -20 -20
-20 -20 -20 -20 -20 -20 -20 -20 -20 -20 -20 -20 -16 -20 -20 -20 -20 -20 -20 -20 -20 -20 -20 -20 -20 -20 -20 -20 -20 -20 -20 -20 -20 -20 -20 -20 -20 -20 -20 -20 -20 -20 -20 -20 -20 -20 -20 -20 -20 -20 -20 -20 -20 -20
-20 -20 -20 -20 -20 -20 -20 -20 -20 -20 -20 -20 -20 -20 -20 -20 -20 -20 -20 -20 -20 -20 -20 -20 -20 -20 -20 -20 -20 -20 -20 -20 -20 -20 -20 -20 -20 -20 -20 -20 -20 -20 -20 -20 -20 -20 -20 -20 -20 -20 -20 -20 -20 -20
-20 -20 -20 -20 -20 -20 -20 -20 -20 -20 -20 -20 -20 -20 -20 -20 -20 -20 -20 -20 -20 -20 -20 -20 -20 -20 -20 -20 -20 -20 -20 -20 -20 -20 -20 -20 -20 -20 -20 -20 -20 -20 -20 -20 -20 -20 -20 -20 -20 -20 -20 -20 -20 -20
-20 -20 -20 -20 -20 -20 -20 -20 -20 -20 -20 -20 -20 -20 -20 -20 -20 -20 -20 -20 -20 -20 -20 -20 -20 -20 -20 -20 -20 -20 -20 -20 -20 -20 -20 -20 -20 -20 -20 -20 -20 -20 -20 -20 -20 -20 -20 -20 -20 -20 -20 -20 -20 -20
-20 -20 -20 -20 -20 -20 -20 -20 -20 -20 -20 -20 -20 -20 -20 -20 -20 -20 -20 -20 -20 -20 -20 -20 -20 -20 -20 -20 -20 -20 -20 -20 -20 -20 -20 -20 -20 -20 -20 -20 -20 -20 -20 -20 -20 -20 -20 -20 -20 -20 -20 -20 -20 -20
-20 -20 -20 -20 -20 -20 -20 -20 -20 -20 -20 -20 -20 -20 -20 -20 -20 -20 -20 -20 -20 -20 -20 -20 -20 -20 -20 -20 -20 -20 -20 -20 -20 -20 -20 -20 -20 -20 -20 -20 -20 -20 -20 -20 -20 -20 -20 -20 -20 -20 -20 -20 -20 -20
-20 -20 -20 -20 -20 -20 -20 -20 -20 -20 -20 -20 -20 -20 -20 -20 -20 -20 -20 -20 -20 -20 -20 -20 -20 -20 -20 -20 -20 -20 -20 -20 -20 -20 -20 -20 -20 -20 -20 -20 -20 -20 -20 -20 -20 -20 -20 -20 -20 -20 -20 -20 -20 -20
-20 -20 -20 -20 -20 -20 -20 -20 -20 -20 -20 -20 -20 -20 -20 -20 -20 -20 -20 -20 -20 -20 -20 -20 -20 -20 -20 -20 -20 -20 -20 -20 -20 -20 -20 -20 -20 -20 -20 -20 -20 -20 -20 -20 -20 -20 -20 -20 -20 -20 -20 -20 -20 -20
-20 -20 -20 -20 -20 -20 -20 -20 -20 -20 -20 -20 -20 -20 -20 -20 -20 -20 -20 -20 -20 -20 -20 -20 -20 -20 -20 -20 -20 -20 -20 -20 -20 -20 -20 -20 -20 -20 -20 -20 -20 -20 -20 -20 -20 -20 -20 -20 -20 -20 -20 -20 -20 -20
-20 -20 -20 -20 -20 -20 -20 -20 -20 -20 -20 -20 -20 -20 -20 -20 -20 -20 -20 -20 -20 -20 -20 -20 -20 -20 -20 -20 -20 -20 -20 -20 -20 -20 -20 -20 -20 -20 -20 -20 -20 -20 -20 -20 -20 -20 -20 -20 -20 -20 -20 -20 -20 -20
-20 -20 -20 -20 -20 -20 -20 -20 -20 -20 -20 -20 -20 -20 -20 -20 -20 -20 -20 -20 -20 -20 -20 -20 -20 -20 -20 -20 -20 -20 -20 -20 -20 -20 -20 -20 -20 -20 -20 -20 -20 -20 -20 -20 -20 -20 -20 -20 -20 -20 -20 -20 -20 -20
-20 -20 -20 -20 -20 -20 -20 -20 -20 -20 -20 -20 -20 -20 -20 -20 -20 -20 -20 -20 -20 -20 -20 -20 -20 -20 -20 -20 -20 -20 -20 -20 -20 -20 -20 -20 -20 -20 -20 -20 -20 -20 -20 -20 -20 -20 -20 -20 -20 -20 -20 -20 -20 -20

GFSWCAN_prec_radar_228.txt.gz
Reflectivity
-20 -20 -20 -20 -20 -20 -20 -20 -3 18 8 -4 -10 3 2 11 20 22 27 27 31 38 24 27 34 33 16 10 7 5 8 7 10 23 32 34 26 12 1 -20 -6 -18 2 11 7 16 14 -15 -20 -20 -20 -20 -20 -20
-20 -20 2 -20 -20 -20 -20 -20 -20 5 -16 -10 -2 0 -7 13 13 21 16 6 13 26 30 19 24 23 16 21 27 15 12 17 21 15 14 29 40 18 -13 -16 -20 0 -20 -18 -10 2 -20 -20 -20 -20 -20 -20 -20 -20
-20 -20 4 1 12 -20 -20 -20 -20 -16 -11 -13 -8 2 0 3 14 21 -1 13 17 19 11 6 -4 -8 -14 15 29 31 36 28 25 35 28 28 27 19 15 -13 6 -10 -15 -11 -19 -16 -18 -20 -17 -20 -20 -20 -20 -20
5 -5 -0 -2 -6 -14 -20 -20 -20 -20 -20 -17 -14 -3 -12 7 10 14 3 2 3 -10 9 5 -11 -11 -14 -13 3 15 10 10 21 26 36 35 35 30 33 32 24 -2 18 29 32 30 7 -20 -20 -11 15 8 -20 -20
4 1 -18 -20 -9 0 13 -20 -20 -20 -13 -13 -1 -13 -18 -20 -6 14 5 4 -19 -7 -12 4 -17 -20 -14 -5 -1 5 14 20 17 30 28 30 27 30 31 31 23 2 5 1 15 16 14 19 23 -11 1 21 13 15
-16 -19 6 2 -8 -3 12 8 -8 -20 -20 -20 -20 -20 -11 5 8 26 36 24 11 13 4 -10 -2 -20 -20 3 8 13 13 16 23 27 30 30 23 11 28 14 -19 -20 -20 -17 20 35 33 25 20 11 -17 4 21 -10
11 -9 7 11 17 -6 8 8 -20 -20 4 -15 -20 15 12 16 12 20 22 19 24 -12 1 -9 -20 -20 -19 -1 7 12 12 -0 -4 11 19 19 9 14 36 16 -20 -20 -20 1 17 6 -3 -10 -20 4 2 -10 -15 -14
9 -9 -20 -7 6 14 -19 -20 -20 -20 9 7 -3 2 25 26 26 29 10 -6 2 -16 -12 15 1 -20 -15 -9 -0 5 11 -5 12 -3 20 12 16 29 20 8 -20 -20 -0 16 16 11 -20 -20 0 -3 1 5 6 3
11 7 1 -16 -12 -16 -20 -20 -20 9 12 21 -2 -19 18 15 36 27 25 30 -5 -20 16 -4 -19 -20 1 -10 6 1 15 8 -4 7 10 8 14 14 -6 -14 -19 -20 -7 7 5 7 -17 -20 -20 -20 -20 -20 -12 -20
-20 -20 -20 10 -19 -19 -19 6 22 -16 13 12 11 20 20 29 16 18 24 23 14 32 3 -4 -20 -3 -15 -1 0 11 5 14 21 8 8 12 -19 -20 -20 -20 -20 -0 2 -10 -20 -20 -20 -20 -20 -20 -20 -20 -20 -15
-20 13 1 7 13 16 8 8 10 22 23 3 17 16 35 32 32 37 24 15 20 24 8 1 -20 -20 -20 -7 3 -0 18 14 21 7 7 12 -20 -20 -20 -20 -20 -20 -20 -20 -20 -20 -20 -20 -20 -20 -20 -20 -12 12
6 2 13 17 26 29 26 19 23 9 -19 -20 -0 14 10 -7 -3 4 4 -1 -15 -20 -4 -5 1 -8 1 -9 -14 -3 15 -10 6 -20 0 -17 -20 -20 -20 -20 -20 -20 -20 -20 -20 -20 -20 -20 -20 -19 5 18 24 18
7 -1 -17 -16 -20 -17 -20 -18 -15 -20 -20 -20 4 1 -20 -20 -12 -20 -20 -20 -20 -20 -2 1 9 8 -2 -15 -3 1 5 10 -15 -17 -19 -20 -20 -20 -20 -20 -20 -20 -20 -20 -20 -20 -19 -5 12 13 26 26 27 16
-6 -14 -20 -20 -20 -20 -20 -20 -20 -20 -20 -8 -20 -20 -18 -20 -20 -20 -20 -20 -20 -20 -5 2 4 8 10 2 7 14 9 -3 1 1 -20 -20 -20 -20 -20 -20 -20 -18 -20 -19 8 -18 -20 -8 6 13 19 13 12 6
-20 -20 -20 -20 -20 -20 -20 -20 -20 -20 -20 -20 -20 -20 -20 -20 -20 -20 -20 -17 -8 -12 4 2 -15 7 5 11 1 1 -1 1 1 -20 -20 -20 -20 -13 -20 5 -8 -10 -9 -18 -20 -20 -19 -20 -20 -20 -20 -20 -20 -20
5 -19 -20 -20 -20 -20 -20 -20 -20 -20 -20 -20 -20 -20 -20 -20 -4 -20 -20 -17 -20 -10 -1 -13 -11 2 4 4 2 -12 -2 -20 -20 -20 -20 -20 -20 -17 -4 -3 3 7 -10 -20 -20 -20 -20 -20 -20 -20 -20 -20 -20 -20
-20 -20 -20 -20 -20 -20 -20 -20 -20 -20 -20 -20 -20 -20 -20 -20 -20 -2 -7 -8 -20 -0 2 -7 -20 -20 1 6 -18 -20 -20 -20 -20 -20 -20 -20 -20 -19 -12 -6 16 29 -19 -20 -20 -20 -20 -20 -20 -20 -20 -20 -20 -20
-20 -20 -20 -20 -20 -20 -20 -20 -20 -20 -20 -20 -20 -20 -20 -20 -20 2 3 3 4 6 6 5 -20 -17 -2 -19 -20 -20 -20 -20 -18 -18 -20 -20 -20 -12 -13 -9 -20 -20 -20 -20 -20 -20 -20 -20 -20 -20 -20 -20 -20 -20
-12 -20 -20 -20 -20 -20 -20 -20 -20 -20 -20 -20 -20 -20 -19 -20 -20 -13 -1 -11 -10 13 13 -10 -18 -2 -9 -20 -20 -20 -20 -20 -10 -20 -20 -10 -10 -20 -20 -20 -20 -20 -20 -20 -20 -20 -20 -20 -20 -20 -20 -20 -20 -20
-20 -20 -20 -20 -20 -20 -20 -20 -20 -20 -20 -20 -20 -20 -5 -16 -9 -9 11 -8 11 17 17 11 -9 -20 -20 -15 -20 -20 -20 -20 -20 -20 -14 -2 -14 -20 -20 -20 -20 -20 -20 -20 -20 -20 -20 -20 -20 -20 -20 -20 -20 -20
-20 -20 -20 -20 -20 -20 -20 -20 -20 -20 -20 -20 -20 -20 8 -2 0 1 10 -11 15 16 11 -20 -20 -20 -20 -20 -20 -20 -20 -20 -20 -20 -20 -20 -20 -20 -20 -20 -20 -20 -20 -20 -20 -20 -20 -20 -20 -20 -20 -5 -3 0
-20 -20 -20 -20 -20 -20 -20 -20 -20 -20 -20 -20 -16 6 14 18 12 11 -16 -4 6 0 -20 -20 -20 -20 -20 -20 -20 -20 -20 -20 -20 -20 -20 -20 -20 -20 -5 -20 -20 -20 -20 -20 -20 -20 -20 -20 -20 -20 -20 -1 -1 -1
-20 -20 -20 -20 -20 -20 -20 -20 -20 -20 -20 -18 3 10 -20 15 6 -20 9 -15 -20 -20 -20 -20 -20 -20 -20 -20 -20 -20 -20 -20 -20 -20 -20 -20 -11 -9 -5 -20 -20 -20 -20 -20 -20 -20 -20 -20 -20 -20 -14 -1 2 2
-17 -20 -20 -20 -20 -20 -20 -20 -20 5 5 0 1 5 5 -20 -20 -4 2 -20 -20 -20 -20 -20 -20 -20 -20 -20 -20 -20 -20 -20 -20 -20 -20 -20 -20 -20 -20 -20 -20 -20 -20 -20 -20 -20 -20 -20 -20 -20 -20 -3 -6 -3
-20 -20 -20 -20 -20 -20 -20 4 -1 5 3 -6 -11 -20 -5 -11 -0 -20 -20 -20 -20 -20 -20 -20 -20 -20 -20 -20 -20 -20 -20 -20 -20 -20 -20 -20 -20 -20 -20 -20 -20 -20 -20 -20 -20 -20 -20 -20 -18 -10 -20 -20 -20 -20
-20 -20 -20 -20 -20 -20 -20 -20 -20 -20 -20 -20 -20 -20 -15 -18 -17 -20 -20 -20 -20 -20 -11 -0 -20 -20 -20 -20 -20 -20 -20 -20 -20 -20 -20 -20 -20 -20 -20 -20 -20 -20 -20 -20 -20 -20 -20 -20 -20 -20 -20 -20 -20 -20
-20 -20 -20 -20 -20 -20 -20 -20 -20 -20 -20 -20 -20 -13 -12 -13 -20 -20 -20 -20 -20 -20 -20 -20 -20 -20 -20 -20 -20 -20 -20 -20 -20 -20 -20 -20 -20 -20 -20 -20 -20 -20 -20 -20 -20 -20 -20 -20 -20 -20 -20 -20 -10 -2
-20 -20 -20 -20 -20 -20 -20 -20 -20 -20 -20 -20 -20 -20 -20 -20 -20 -20 -20 -20 -20 -20 -20 -20 -20 -20 -20 -20 -20 -20 -20 -20 -20 -20 -20 -20 -20 -20 -20 -20 -20 -20 -20 -20 -20 -20 -20 -20 -20 -20 -20 -20 -20 -11
-0 -20 -20 -20 -20 -20 -20 -20 -20 -20 -20 -20 -20 -20 -20 -20 -20 -20 -20 -20 -20 -20 -20 -20 -20 -20 -20 -20 -20 -20 -20 -20 -20 -20 -20 -20 -20 -20 -20 -20 -20 -20 -20 -20 -20 -20 -20 -20 -1 -3 -18 -5 -4 -0
-8 -20 -20 -20 -20 -20 -20 -20 -20 -20 -20 -20 -20 -20 -20 -20 -20 -20 -20 -10 -20 -20 -20 -20 -20 -20 -20 -20 -20 -20 -20 -20 -20 -20 -20 -20 -20 -20 -20 -20 -20 -20 -20 -20 -20 -4 -12 -20 -20 -20 -20 -20 -2 -2
-20 -13 -20 -20 -20 -20 -20 -20 -20 -20 -20 -20 -20 -20 -20 -20 -20 -20 -19 -12 -20 -20 -20 -20 -20 -20 -20 -20 -20 -20 -20 -20 -20 -20 -20 -20 -20 -20 -20 -20 -20 -20 -20 -20 -8 -13 -20 -1 -2 -20 -20 -20 -20 -20
-15 1 -20 -20 -20 -20 -5 -4 -19 -20 -20 -20 -20 -20 -20 -20 -20 -20 -20 -20 -20 -20 -20 -20 -20 -20 -20 -20 -20 -20 -20 -20 -20 -20 -20 -20 -20 -20 -20 -20 -20 -20 -20 -20 -20 -20 -20 -20 -20 -20 -20 -20 -20 -20
-18 -20 -20 -20 -17 -20 1 -9 -20 -20 -20 -20 -20 -20 -20 -20 -20 -20 -20 -20 -20 -20 -20 -20 -20 -20 -20 -20 -20 -20 -20 -20 -20 -20 -20 -20 -20 -20 -20 -20 -20 -20 -20 -20 -20 -20 -20 -20 -20 -20 -20 -20 -20 -20

GFSWCAN_prec_radar_234.txt.gz
Reflectivity
8 7 6 12 10 -20 4 18 5 19 32 35 35 32 36 35 35 32 21 23 20 26 23 0 10 -19 -8 15 18 -18 9 16 25 26 23 18 34 10 -10 1 -1 22 15 15 14 23 14 -20 -20 -20 -20 -20 -11 -20
13 2 6 -1 15 5 0 17 17 21 32 36 35 37 34 34 38 38 31 29 26 22 -6 -10 -17 -20 -20 -20 -18 -12 -5 -3 17 24 25 34 39 22 8 -14 -13 39 31 4 -18 -6 -20 -20 -20 -20 -20 -20 -19 -19
17 11 3 7 -17 12 -20 -0 18 27 31 26 32 33 35 33 35 35 35 33 32 32 35 34 32 26 23 20 28 33 32 28 35 32 36 37 40 33 32 24 12 -8 6 35 22 -15 -20 -20 -20 -20 -19 -20 -7 -3
19 7 7 9 -13 10 -20 -10 -5 17 26 27 29 30 26 25 32 39 36 36 36 36 37 41 31 29 26 28 28 26 28 29 33 35 34 32 31 35 35 24 6 -20 -20 -19 2 -20 11 12 -19 10 5 -20 -7 21
11 11 -3 -20 -20 -20 -3 -20 -20 -20 12 25 31 26 15 20 20 23 30 34 34 33 29 25 16 13 16 17 19 19 28 33 37 34 28 24 23 26 28 21 -13 -20 -20 20 31 5 10 -10 -15 -12 -11 11 8 0
-13 -10 12 9 -8 -20 11 -20 -20 -16 14 10 11 17 19 5 9 12 22 15 16 23 19 21 17 13 5 1 10 21 22 26 22 18 23 24 21 16 28 19 -20 -20 -20 -14 10 -11 -20 -20 -20 3 4 3 -17 -13
-12 15 12 -1 2 -20 14 -20 -20 -20 -20 15 -14 13 7 12 5 2 -1 2 7 9 15 15 13 2 -19 7 9 13 16 13 6 7 5 6 7 7 15 -17 -20 -20 -20 -7 -12 -20 -20 -20 -20 1 2 -12 -18 -20
-20 14 15 16 0 -20 -12 -10 -20 -20 -8 -4 18 12 8 16 22 6 1 -10 -1 -7 -4 15 10 1 -5 6 10 9 11 3 15 10 -7 -20 -13 9 -9 -20 -20 -20 -20 -20 -20 -20 -20 -20 -20 -20 -20 -20 -20 -20
-20 -20 -13 12 10 7 -20 -20 -20 -20 -20 16 9 3 8 4 -5 12 15 -3 -19 10 -3 -17 -5 12 2 -7 -9 -16 9 6 5 6 0 -20 -1 2 -20 -20 -20 -20 -20 -20 -20 -20 -20 -20 -20 -16 -20 -20 -20 -20
12 12 -16 -19 -20 5 7 10 -19 8 13 18 4 16 25 21 -3 0 19 5 -17 -19 -4 -20 -6 -20 -13 -0 8 -18 -19 1 9 -11 -17 5 -19 -20 -20 -20 -20 -20 -20 -20 -20 -20 -20 -20 -6 -20 -20 -20 -18 -19
22 -3 7 6 -4 -20 -19 -11 18 17 19 -1 7 22 28 17 -11 -4 -9 17 -9 -12 -19 -20 9 -20 -13 -16 -7 0 -16 3 -1 5 -1 5 -20 -20 -20 -20 -20 -20 -20 -20 -20 -20 -20 -20 -20 -20 -20 -20 -20 -20
6 12 18 23 7 9 -11 14 11 21 -15 -20 -11 20 10 -16 3 -11 8 4 -12 8 -20 -10 18 -13 -7 -15 5 -6 -18 -15 -4 -7 -12 -8 -20 -20 -20 -20 -20 -20 -20 -20 -20 -20 -20 -19 -15 -17 -6 9 10 -11
14 16 10 15 22 21 11 -12 -20 -20 -6 -20 -2 20 2 6 0 14 -5 -6 12 -10 -15 5 12 -20 -20 -7 -20 -19 -16 -2 -19 -8 -17 -20 15 -20 -20 -20 -20 -20 -20 -20 -20 -20 -20 -20 -11 3 1 10 2 -12
-20 -18 -11 -0 5 -0 10 -20 -20 -20 -20 12 -20 -20 15 -19 9 18 12 16 18 -20 2 7 -18 4 5 -14 -4 -17 -6 -10 1 -1 -20 1 -18 -20 -20 -20 -20 -20 -20 -20 -20 -20 -20 -20 -20 -9 -10 -5 -20 -20
-20 -20 -20 -20 -20 -19 -20 -20 -20 -20 -20 -20 -13 16 -9 14 5 -9 3 -17 -6 -8 -14 -7 8 2 3 -14 -4 -11 -8 -5 -15 -20 20 -20 -20 -20 -20 -20 -20 -20 -20 -15 -16 -20 -20 -20 -20 -11 -19 -20 -20 -20
-20 -20 -20 -20 -20 -20 -20 -20 -20 -20 -20 -7 -20 -10 6 -20 -12 -14 -20 -20 -20 -7 -1 12 5 12 -9 -2 2 -13 2 -16 -20 21 -20 -20 -20 -20 -20 -20 -20 -20 -20 -20 -20 -20 -20 -20 -20 -20 -20 -20 -20 -20
-20 -20 -20 -20 -20 -20 -20 -20 -20 -20 -20 -20 2 -6 15 5 4 -20 -14 -20 -20 8 9 16 -6 -20 7 12 3 -20 -20 -10 -11 -20 -20 -20 -20 -20 -20 -17 -20 -20 -20 -20 -20 -20 -20 -20 -20 -20 -20 -20 -20 -20
12 -20 -20 -20 -20 -20 -20 -20 -6 -20 -20 -20 -10 -20 -1 -20 -18 1 8 -8 -3 10 -12 5 19 12 -8 -20 -15 -20 -13 1 -20 -20 -20 -20 -20 -20 3 -19 -20 -20 -20 -20 -20 -20 -20 -20 -20 -20 -20 -20 -20 -20
-20 -20 -20 -20 -20 -20 -20 -20 -20 -5 -20 -20 -20 -20 -11 -5 -11 -11 4 4 4 -8 4 3 -20 -20 -20 -20 -20 -2 20 6 -20 -20 -20 -20 -20 -20 -20 -20 -20 -20 -20 -20 -20 -20 -20 -20 -20 -20 -20 -20 -20 -20
-20 -20 -20 -20 -20 -20 -20 -20 -20 -16 -20 -20 -20 -20 -20 -20 -20 -18 -13 -11 -12 11 10 4 -20 -20 -17 3 8 -10 -13 -16 -20 -20 -20 -16 -20 -17 -4 -20 -20 -20 -20 -20 -20 -20 -20 -20 -20 -20 -20 -20 -20 -20
-20 -20 -20 -20 -20 -20 15 -2 -20 -20 -20 -20 -20 -16 1 -20 -8 -4 -6 1 16 11 -11 -20 -20 -20 -20 -20 -20 -20 -20 -20 -20 -20 -14 0 -20 -8 -20 -20 -20 -20 -20 -20 -20 -20 -20 -20 -20 -20 -20 -4 -20 -20
-5 -20 -20 -20 -20 -20 -20 -20 -20 -20 -20 -20 7 -20 8 -20 -15 -19 0 13 6 -1 -12 -14 2 3 -20 -20 -20 -20 -20 -20 -20 -20 -12 6 -1 -20 -20 -20 -20 -17 -4 -4 -7 -20 -20 -20 -20 -20 -16 -3 -20 -20
-20 -20 -20 -19 -16 -20 -19 -20 -16 -20 3 -12 -1 -0 -10 -10 3 9 15 -14 -20 -20 -20 -11 7 10 7 -20 -20 -20 -20 -20 -20 -20 -20 -15 -20 -20 -20 -3 -5 -20 -2 4 -20 -20 -20 -20 -20 -17 -20 -3 9 10
-20 -16 -20 -13 -20 -3 -20 -20 -20 -20 -20 -4 -2 -15 -19 2 8 11 3 -4 11 -20 -20 -20 10 12 -20 -20 -20 -20 -20 -20 -20 -20 -20 -20 -20 -20 -20 -20 -19 -20 -20 -20 -20 -20 -20 -18 -20 -9 -5 -2 -2 7
10 -20 -20 -20 -20 6 -19 -20 -20 -20 -20 -20 -8 3 12 -11 8 0 -20 -20 -19 -20 8 -7 8 6 -20 -20 -20 -20 -20 -20 -20 -20 -20 -20 -20 -20 -20 -20 -20 -20 -20 -9 -5 -20 -20 0 2 0 1 2 -16 2
-4 -20 -20 -20 -20 -8 -20 -20 -20 -20 -20 -3 -3 -3 -1 -15 -8 -20 -20 -20 -2 -11 -19 -7 -15 5 1 -7 -4 -20 -20 -20 -20 -20 -20 -20 -20 -20 -17 -10 -20 -16 -20 -16 -20 -20 -4 1 -1 -17 -20 -20 -20 -0
1 -15 -20 -20 -20 -20 -20 -9 -11 -20 1 0 1 -12 -20 -8 -20 -20 -20 -20 -20 -20 -13 -20 -17 -20 -1 -1 4 -20 -20 -20 -20 -20 -20 -20 -20 -20 -20 -20 -20 -20 -20 -12 1 -3 -20 -4 -20 3 -5 1 5 1
-4 -13 -20 -20 -20 -20 -6 -3 -3 3 3 -9 6 4 -5 -20 -20 -20 -20 -20 -20 -20 -20 -20 -20 -20 -19 -20 -20 -20 -20 -20 -20 -20 -20 -20 -20 -20 -20 -20 -20 -20 -20 -2 -2 -8 -18 -2 2 -1 4 -0 5 2
9 2 1 7 -3 -12 0 2 1 -15 -20 -16 -1 5 -4 -20 -20 -20 -20 -20 -20 -20 -20 -20 -18 -20 -20 -20 -20 -20 -20 -20 -20 -20 -20 -20 -20 -3 -18 -20 -20 -18 -5 -20 -20 -16 -12 -4 3 -20 -19 -4 3 6
-8 -6 10 8 -3 4 -7 -8 6 -5 -20 -5 -9 -20 -20 -20 -20 -20 -20 -20 -12 -13 -16 -20 -3 -20 -20 -20 -20 -20 -13 -7 -12 -20 -20 -10 -19 -2 0 -4 -5 -4 -10 -20 -19 -17 -20 -20 -20 -20 -2 2 -2 -3
9 10 11 13 10 -20 4 -20 -15 -20 -20 -20 -9 -15 5 -2 -10 -20 -20 -20 -10 -20 -20 -9 -3 -10 -19 -20 -20 -20 -15 -17 -20 -20 -20 -20 -20 -6 -1 -3 -2 -0 -15 -20 -20 -20 -20 -1 -0 -1 2 -12 -13 -1
-6 16 14 1 11 -8 -4 -4 -8 -4 -11 -20 -20 -20 -20 -12 -2 -8 -3 -15 -4 -19 8 1 -1 5 -19 -14 -8 -19 -20 -7 -14 -20 -20 -20 -20 -8 -20 -11 -19 -20 -20 -10 -2 -13 -1 -1 1 -1 -20 -20 -3 -9
13 11 9 14 19 3 -3 -18 -19 10 13 2 6 6 1 2 9 -5 -18 -8 -5 0 -11 -15 -19 1 -19 -20 -20 -20 -20 -20 -20 -20 -20 -20 -20 -20 -14 -18 -12 -20 -15 -3 -1 -3 -19 -7 -20 -14 -14 -20 -20 -20

GFSWCAN_prec_radar_237.txt.gz
Reflectivity
21 19 18 18 16 16 9 6 19 35 30 35 37 33 26 4 -14 32 31 6 14 10 -5 5 -8 -17 -20 -20 10 9 8 10 23 27 27 14 7 -20 -20 -20 -20 -20 -18 -20 -6 7 -8 -20 -20 -20 -20 -20 -20 -20
20 -3 -9 18 16 17 10 10 22 37 30 34 36 30 33 33 32 20 23 27 33 -3 -1 4 3 8 -9 -6 20 10 10 13 21 23 22 17 5 -14 -20 -16 -20 -4 -19 -20 -20 -20 -20 -20 -15 23 -3 -15 -20 -18
10 13 15 23 18 11 -10 -19 9 29 30 34 37 38 32 28 28 30 32 25 28 24 18 23 28 25 -10 -2 -0 8 21 26 24 23 22 23 30 18 -2 -2 -0 -16 0 11 20 6 -5 17 17 13 15 -18 -20 -20
9 12 10 18 11 -10 -20 -20 7 24 28 28 34 38 36 35 32 25 28 28 12 22 32 30 22 25 26 27 29 23 26 29 29 22 29 31 29 24 13 20 17 21 23 28 21 28 26 31 24 38 10 -5 -14 13
-17 -4 12 17 9 12 -20 -20 13 18 28 32 33 35 37 37 37 36 26 21 16 22 28 30 27 30 30 25 13 22 30 34 28 22 28 28 33 34 32 30 25 26 35 35 31 21 29 27 18 -3 18 -7 -19 -20
-4 17 13 11 13 -19 -20 -20 -20 21 25 15 23 28 30 29 32 34 40 38 37 35 19 22 33 29 27 30 29 32 34 35 32 36 29 36 27 24 21 15 2 22 24 21 12 3 -19 -20 -20 -19 -20 -20 -17 -20
4 18 12 10 9 -14 -20 -20 -20 13 19 19 20 29 27 24 20 22 29 31 29 28 27 19 19 27 28 29 32 30 27 31 27 27 29 29 24 11 -7 -20 -7 16 14 -4 -9 -20 -20 -20 -20 -20 -20 -20 -20 -20
-9 -9 15 14 -10 -20 -20 -20 -6 -3 13 18 21 25 19 17 13 18 23 22 21 20 18 19 15 22 21 27 31 25 24 18 21 13 6 2 6 -20 -20 -20 -16 -20 -20 -20 -20 -20 -20 -20 -20 -20 -20 -20 -20 -20
-2 -20 -20 -1 7 -20 -20 -7 8 11 11 8 15 9 -14 -3 15 21 18 10 9 8 5 -1 -2 0 11 19 3 1 -2 -14 -12 -7 -7 -12 -19 -20 -20 -20 -20 -20 -20 -20 -20 -20 -20 -20 -20 -20 -20 -20 -20 -20
-16 14 -19 -19 -19 15 7 5 4 -1 12 11 -20 -20 14 -9 -2 -13 3 8 9 8 8 8 9 4 -1 1 -6 -15 -19 -17 -20 -20 -11 -19 -20 -20 -20 -20 -20 -20 -20 -20 -20 -20 -20 -20 -20 -20 -20 -20 -20 -20
27 17 15 2 2 11 13 -4 -20 10 -1 -16 15 18 8 3 -20 -20 -19 -20 -12 -9 -5 -1 -3 4 1 -4 -6 -4 -6 -15 -20 -20 -20 -20 -15 -16 -20 -20 -20 -20 -20 -20 -20 -20 -20 -20 -20 -20 -19 -7 -9 -7
14 22 22 23 -6 28 30 26 23 25 11 -20 8 15 -1 -11 -20 -20 -20 -7 -20 -13 -20 -20 -20 -20 -13 -13 -18 -20 -17 -20 -20 -20 -20 -20 -20 -20 -20 -20 -20 -20 -20 -20 -20 -20 -20 -4 -20 -5 -16 -13 -20 -20
-1 -8 14 16 13 1 0 0 15 -2 -20 -3 5 -20 -20 -20 -20 -20 -20 -20 5 -20 -20 -19 -20 -20 -20 -20 -20 -20 -20 -20 -20 -20 -20 -20 -20 -20 -20 -20 -20 -20 -20 -20 -19 -20 5 16 6 -16 -18 -20 -19 -20
-1 5 -11 -4 24 -20 12 19 -9 -18 -20 -20 -19 -20 -20 -20 -20 10 -20 -20 -20 -20 -20 -20 -20 -20 -20 -20 -20 -20 -20 -20 -20 -20 -20 -20 -20 -20 -20 -20 -20 -20 -20 -20 -20 -20 -16 -20 -20 -20 -20 -20 -20 -20
-20 -20 -20 -20 -20 -20 -10 -13 -20 -20 -20 -20 -20 -20 -20 -20 -11 -14 23 -1 -20 24 -20 -20 -20 -20 -20 -20 -20 -20 -20 -20 -20 -20 -20 -20 -20 -20 -20 -20 -20 -20 -20 -20 -20 -20 -20 -20 -20 -20 -20 -20 -20 -20
-20 -20 -20 -20 -20 -20 -20 -20 -20 -20 -20 -16 -20 -20 -20 -20 -20 -20 -20 -20 -11 -19 -20 -20 -20 -20 -20 -20 -20 -20 -20 -20 -20 -20 -20 -20 -20 -20 -20 -20 -20 -20 -20 -20 -20 -20 -20 -20 -20 -20 -20 -20 -20 -20
-20 -20 -20 -20 -20 -20 -20 -20 -20 -20 -20 -14 -20 -20 -20 -20 -20 -20 -20 -20 -20 -20 -20 -20 -20 -20 -20 -20 -20 -20 -20 -20 -20 -20 -20 -20 -20 -20 -20 -20 -20 -14 -4 -20 -20 -20 -20 -20 -20 -20 -20 -20 -20 -20
-13 -20 -20 -20 -20 -20 -20 -20 -20 -20 -20 -20 -20 -20 -20 -20 -20 -20 -11 -20 -19 -20 -14 -10 -20 -20 -20 -20 -20 -20 -20 -20 -20 -20 -20 -20 -20 -20 -20 2 -19 -20 -20 -20 -20 -20 -20 -20 -20 -20 -20 -20 -20 -20
-20 -20 -20 -20 -20 -20 -20 -20 -20 -20 -20 -20 -20 -20 -20 -20 -20 -20 -20 -20 -20 -20 -20 -20 -20 -20 -20 -20 -20 -20 -20 -20 -20 -20 -20 -20 -20 -20 -11 -8 -20 -20 -20 -20 -20 -20 -20 -20 -20 -20 -20 -20 -20 -20
-20 -20 -20 -20 -20 -20 -20 -20 -20 -20 -20 -20 -20 -20 -20 -20 -20 -20 -20 -20 -20 -20 -20 -20 -20 -20 -20 -20 -20 -20 -20 -20 -20 -20 -20 -20 -20 -20 -15 -20 -20 -20 -20 -20 -20 -17 -20 -20 -20 -20 -20 -20 -20 -20
-20 -20 -20 -20 -20 -20 -20 -20 -20 -20 -20 -20 -20 -20 -20 -20 -20 -20 -20 -20 6 -20 -20 -20 -20 -20 -20 -20 -20 -20 -20 -20 -20 -20 -20 -20 -9 -5 5 -20 -20 -20 -20 -20 -20 -20 -20 -20 -20 -20 -20 -20 -20 -20
-15 -20 -20 -20 -20 -20 -20 -20 -20 -20 -20 -20 -17 -20 -20 -20 -20 -20 -20 -16 -20 -20 -20 -20 -20 -20 -20 -20 -20 -20 -20 -20 -20 -20 -20 -5 -20 -20 -20 -20 -20 -20 -19 -20 -20 -20 -20 -20 -20 -20 -20 -20 -20 -20
-20 -20 -20 -20 -20 -20 -20 -20 -20 -20 -7 -20 -20 -10 -13 -20 -20 -20 -8 -20 -20 -20 -20 -20 -20 -20 -20 -20 -20 -20 -20 -20 -20 -20 -19 -20 -20 -20 -20 -20 -20 -20 -20 -20 -20 -20 -20 -20 -20 -20 -20 -20 -20 -20
-20 -20 -20 -20 -20 -20 -20 -20 -20 -20 -20 -20 -19 -19 -20 -20 -20 12 6 -20 -20 -20 -20 -20 -20 -20 -4 -20 -20 -20 -20 -20 -20 -20 -15 -10 -20 -20 -20 -19 -11 -7 -20 -20 -20 -20 -20 -20 -20 -20 -20 -20 -20 -20
-9 -20 -20 -20 -20 -19 -20 -20 -20 -20 -20 -20 -13 7 -20 -20 -7 -20 -20 -20 -20 -20 -20 -20 -20 8 -20 -20 -20 -20 -20 -20 -20 -20 -20 -20 -20 -20 -20 -20 -20 -19 -20 -20 -20 -20 -20 -20 -20 -20 -20 -20 -20 -20
-8 -20 -20 -20 -20 -18 -20 -20 -20 -20 -20 -20 -20 -20 -20 -20 -20 -20 -20 -20 -20 -20 -2 -20 -4 2 -20 -20 -20 -20 -20 -20 -20 -20 -20 -20 -20 -20 -20 -20 -20 -16 -20 -20 -20 -20 -20 -20 -20 -20 -20 -20 -20 -20
-20 -20 -20 -20 -20 -20 -20 -20 -20 -20 -20 -20 -20 -20 -20 -20 -20 -20 -20 -20 -20 -20 -20 -20 -20 4 -8 -20 -20 -20 -20 -20 -20 -20 -20 -20 -20 -20 -20 -20 -20 -20 -20 -20 -20 -20 -20 -20 -20 -20 -20 -20 -20 -20
-20 -20 -19 -20 -20 -20 -20 -17 -18 -5 -20 -11 4 -20 -20 -20 -20 -20 -20 -20 -20 -20 -20 -20 -20 -20 -20 -20 -20 -20 -20 -20 -20 -20 -20 -20 -20 -20 -20 -20 -20 -20 -20 -20 -20 -20 -20 -20 -20 -20 -20 -20 -20 -20
0 -19 -6 -20 -20 -20 -20 -20 -20 -20 -20 -20 -20 -20 -20 -20 -20 -20 -20 -20 -20 -20 -20 -20 -20 -20 -20 -20 -20 -20 -20 -20 -20 -20 -20 -20 -20 -12 -20 -20 -20 -20 -20 -20 -20 -20 -20 -20 -20 -20 -20 -20 -20 -20
-20 -4 9 -20 -20 -20 -17 -18 -5 -20 -20 -20 -20 -20 -20 -20 -20 -20 -20 -20 -20 -20 -20 -20 -20 -20 -20 -20 -20 -20 -20 -20 -20 -20 -20 -20 -20 -20 -20 -20 -20 -20 -20 -20 -20 -20 -20 -20 -20 -20 -20 -20 -20 -20
-3 -9 1 6 -20 -20 -20 -20 -20 -20 -20 -20 -20 -20 -20 -20 -20 -20 -20 -20 -20 -20 -15 -20 -20 -20 -20 -20 -20 -20 -20 -20 -20 -20 -20 -20 -20 -20 -20 -20 -20 -20 -20 -20 -20 -20 -20 -20 -20 -20 -20 -20 -20 -20
-14 4 7 9 7 -20 -5 -11 -20 -20 -20 -20 -20 -20 -20 -20 -20 -20 -20 -19 -18 -18 8 -3 -15 -20 -20 -20 -20 -20 -20 -20 -20 -20 -20 -20 -20 -20 -20 -20 -20 -20 -20 -20 -20 -20 -20 -20 -20 -20 -20 -20 -20 -20
-5 -7 5 15 11 -20 -20 -9 -1 -16 -20 -20 -4 -20 -16 -18 -20 -20 -20 -20 -20 -18 -20 -20 -20 -20 -20 -20 -20 -20 -20 -20 -20 -20 -20 -20 -20 -20 -20 -20 -20 -20 -20 -20 -20 -20 -20 -20 -20 -20 -20 -20 -20 -20